OK2CME-6 Weather Reports


time (UTC)temp
F
wind
direction
speed
knots
gust
knots
rain 1hr
in
rain 24hr
in
rain mn
in
humidity
%
barometer
mb
20260503052817 53 149 5.2 13.0 0.00 0.00 0.00 57 1022.6
20260503050817 53 165 5.2 11.3 0.00 0.00 0.00 58 1022.7
20260503044817 51 126 3.5 7.8 0.00 0.00 0.00 61 1022.7
20260503042817 50 116 3.5 8.7 0.00 0.00 0.00 62 1022.6
20260503040817 49 127 3.5 7.8 0.00 0.00 0.00 62 1022.6
20260503034817 49 89 2.6 7.0 0.00 0.00 0.00 61 1022.5
20260503032817 50 74 1.7 5.2 0.00 0.00 0.00 58 1022.5
20260503030817 50 57 0.9 3.5 0.00 0.00 0.00 57 1022.6
20260503024817 51 57 1.7 5.2 0.00 0.00 0.00 54 1022.4
20260503022817 52 47 1.7 3.5 0.00 0.00 0.00 51 1022.3
20260503020817 55 24 0.9 5.2 0.00 0.00 0.00 47 1022.5
20260503014817 55 18 0.9 3.5 0.00 0.00 0.00 46 1022.2
20260503012817 54 46 1.7 3.5 0.00 0.00 0.00 48 1022.5
20260503010817 54 45 1.7 2.6 0.00 0.00 0.00 48 1022.4
20260503004817 54 43 1.7 2.6 0.00 0.00 0.00 50 1022.6
20260503002817 54 31 0.9 2.6 0.00 0.00 0.00 50 1022.6
20260503000817 56 40 1.7 3.5 0.00 0.00 0.00 45 1022.9
20260502234817 57 54 2.6 5.2 0.00 0.00 0.00 45 1022.6
20260502232817 57 57 2.6 5.2 0.00 0.00 0.00 46 1023.0
20260502230817 56 47 1.7 3.5 0.00 0.00 0.00 47 1023.1
20260502224817 56 39 1.7 3.5 0.00 0.00 0.00 48 1023.3
20260502222817 58 49 1.7 3.5 0.00 0.00 0.00 45 1023.2
20260502220817 59 48 1.7 3.5 0.00 0.00 0.00 44 1023.3
20260502214817 59 43 2.6 5.2 0.00 0.00 0.00 45 1023.5
20260502212817 59 46 2.6 5.2 0.00 0.00 0.00 45 1023.7
20260502210817 58 44 2.6 5.2 0.00 0.00 0.00 46 1024.0
20260502204817 59 33 1.7 5.2 0.00 0.00 0.00 44 1023.9
20260502202817 58 51 2.6 5.2 0.00 0.00 0.00 44 1023.9
20260502200817 59 45 2.6 5.2 0.00 0.00 0.00 44 1024.0
20260502194817 60 38 1.7 3.5 0.00 0.00 0.00 43 1024.0
20260502192817 60 30 1.7 3.5 0.00 0.00 0.00 46 1024.0
20260502190817 62 18 1.7 3.5 0.00 0.00 0.00 44 1023.9